Погода в Помчище

Россия / Костромская область     58°16′35″N   42°58′58″E
темп.,
°C
ветер,
м/с
пор.,
м/с
влажн.,
%
обл.,
%
осадки,
мм/ч
давл.,
гПа
погр.,
м
18 мая, вт
вт1800:00+15в31184100 0.1 1016231
03:00+14вюв31294100 1.2 1017294
06:00+16вюв310925 0.1 1017317
09:00+21юв477325 0.1 1017531
12:00+26юв465427 0.0 10161128
15:00+27юв574931 0.0 10151769
18:00+25юв48587 0.0 1015963
21:00+20вюв4137911 0.0 1015425
19 мая, ср
ср1900:00+17вюв414875 0.0 1016418
03:00+16вюв312915 0.0 1016336
06:00+17вюв413795 0.0 1016408
09:00+23юв58575 0.0 1015651
12:00+26юв584410 0.0 10151296
15:00+27юв58424 0.0 10141875
18:00+24юв59520 0.0 10141072
21:00+18вюв313730 0.0 1014435
20 мая, чт
чт2000:00+17вюв414750 0.0 1014433
03:00+16вюв413780 0.0 1013378
06:00+17вюв412770 0.0 1013377
09:00+22юв47585 0.0 1013754
12:00+26юв69441 0.0 10121973
15:00+27юв610400 0.0 10112714
18:00+24юв71153100 0.0 10101675
21:00+18юв6147864 0.7 1011927
21 мая, пт
пт2100:00+14ююв61290100 0.6 1011800
03:00+11юв4119744 0.6 1011469
06:00+13ююв51290100 0.0 1010612
09:00+16ю6117793 0.0 1009977
12:00+18ю81466100 0.6 10091606
15:00+15ююз6127098 1.1 10111511
18:00+13ююз61272100 0.1 10121561
21:00+11юз51184100 0.1 1013998
22 мая, сб
сб2200:00+11юз51087100 0.1 1015934
03:00+9з3991100 0.1 1018476
06:00+10зюз258630 0.0 1020284
09:00+14юз3465100 0.0 1020896
12:00+16юз4655100 0.1 10201655
15:00+18юз454930 0.1 10191734
18:00+16ююз3561100 0.0 1020643
21:00+12ю1183100 0.0 101915